Flag for Namibia Weather past 2 weeks in Swakopmund, Namibia

Now
79 °F

Pleasantly warm.


Feels Like: 79 °F
Forecast: 72 / 83 °F
Wind: 13 mph from East

Location: Walvis Bay


UV Index: 5 (Moderate)

Visibility: N/A


Pressure: 29.95 "Hg

Humidity: 32%

Dew point: 46 °F

Location of SwakopmundLocation

Historic Weather in Swakopmund

°F

Swakopmund temperature yesterday

Maximum temperature yesterday: 97 °F (at 11:00 AM)
Minimum temperature yesterday: 66 °F (at 12:00 AM)
Average temperature yesterday: 80 °F

Past Weeks' High & Low Weather Summary

 TemperatureHumidityPressure
High100 °F (Apr 10, 3:00 PM)94% (Apr 5, 5:00 AM)30.04 "Hg (Apr 5, 5:00 AM)
Low55 °F (Apr 17, 6:00 AM)10% (Apr 10, 3:00 PM)29.86 "Hg (Apr 5, 7:00 PM)
Average75 °F52%29.95 "Hg
* Reported Apr 5 4:00 AM — Apr 20 3:00 AM, Swakopmund, Weather by CustomWeather, © 2014

Note: Actual official high and low records may vary slightly from our data, if they occured in-between our weather recording intervals... More about our weather records

Advertising

Historic Weather Conditions — Data for Previous 24 hours

 ConditionsComfort  
Time TempWeatherWind HumidityBarometerVisibility
3:00 AM
Apr 20
79 °FPleasantly warm.14 mph32%29.95 "HgN/A
2:00 AM77 °FPleasantly warm.2 mph39%29.95 "HgN/A
1:00 AM77 °FPleasantly warm.2 mph39%29.98 "HgN/A
12:00 AM77 °FPleasantly warm.2 mph39%29.98 "HgN/A
11:00 PM
Apr 19
79 °FPleasantly warm.3 mph37%29.98 "HgN/A
10:00 PM82 °FPleasantly warm.7 mph32%29.98 "HgN/A
9:00 PM84 °FPleasantly warm.16 mph31%29.98 "HgN/A
8:00 PM84 °FPleasantly warm.12 mph31%29.95 "HgN/A
7:00 PM84 °FPleasantly warm.13 mph29%29.95 "HgN/A
6:00 PM86 °FPleasantly warm.8 mph27%29.92 "HgN/A
5:00 PM90 °FHot.13 mph24%29.92 "HgN/A
4:00 PM90 °FHot.14 mph27%29.92 "HgN/A
3:00 PM88 °FPleasantly warm.16 mph29%29.92 "HgN/A
2:00 PM84 °FPleasantly warm.14 mph35%29.92 "HgN/A
1:00 PM90 °FPartly sunny.14 mph29%29.95 "HgN/A
12:00 PM95 °FPartly sunny.10 mph26%29.95 "HgN/A
11:00 AM97 °FPartly sunny.15 mph19%29.98 "HgN/A
10:00 AM93 °FExtremely hot.18 mph21%30.01 "HgN/A
9:00 AM82 °FPartly sunny.5 mph48%30.01 "HgN/A
8:00 AM68 °FOvercast.2 mph73%30.01 "HgN/A
7:00 AM66 °FOvercast.3 mph68%29.98 "HgN/A
6:00 AM66 °FOvercast.9 mph68%29.98 "HgN/A
5:00 AM68 °FOvercast.2 mph69%29.95 "HgN/A
4:00 AM70 °FMild.3 mph64%29.92 "HgN/A
Weather by CustomWeather, © 2014

See weather overview